Regional Weather Roundup
Issued by NWS

Home | Current Version | Previous Version | Text Only | Print | Product List | Glossary On
Versions: 1 2 3 4 5 6 7 8 9 10 11 12 13 14 15 16 17 18 19 20 21 22 23 24 25 26 27 28 29 30 31 32 33 34 35 36 37 38 39 40 41 42 43 44 45 46 47 48 49 50
000
ASUS46 KPQR 310010
RWROR

OREGON REGIONAL WEATHER ROUNDUP
NATIONAL WEATHER SERVICE PORTLAND OR
500 PM PDT MON MAY 30 2016

NOTE: "FAIR" INDICATES FEW OR NO CLOUDS BELOW 12,000 FEET WITH
NO SIGNIFICANT WEATHER AND/OR OBSTRUCTIONS TO VISIBILITY.

ORZ001>013-310100-
NORTHWEST OREGON


CITY           SKY/WX    TMP DP  RH WIND       PRES   REMARKS
ASTORIA        MOSUNNY   66  51  58 NW16      30.19F
6HR MIN TEMP:  61; 6HR MAX TEMP:  69;

NEWPORT        MOSUNNY   61  52  72 N17       30.17F
PORTLAND       PTSUNNY   76  43  30 NW12      30.14F
6HR MIN TEMP:  62; 6HR MAX TEMP:  77;

VANCOUVER WA   PTSUNNY   75  42  30 NW12      30.13F
6HR MIN TEMP:  61; 6HR MAX TEMP:  76;

SCAPPOOSE      MOSUNNY   76  41  28 N9        30.14F
6HR MIN TEMP:  63; 6HR MAX TEMP:  77;

HILLSBORO      MOSUNNY   78  36  21 N12G18    30.13F
6HR MIN TEMP:  64; 6HR MAX TEMP:  79;

AURORA         MOSUNNY   76  46  34 VRB6      30.14F
6HR MIN TEMP:  62; 6HR MAX TEMP:  77;

MCMINNVILLE    SUNNY     78  42  27 N6        30.14F
6HR MIN TEMP:  64; 6HR MAX TEMP:  78;

SALEM          MOSUNNY   77  41  27 N8G17     30.12F
6HR MIN TEMP:  63; 6HR MAX TEMP:  78;

CORVALLIS        N/A     79  37  22 NE13      30.13F
EUGENE         PTSUNNY   74  40  29 NE16      30.11F
6HR MIN TEMP:  63; 6HR MAX TEMP:  75;

$$

ORZ021-028-310100-
SOUTHWEST OREGON


CITY           SKY/WX    TMP DP  RH WIND       PRES   REMARKS
NORTH BEND     SUNNY     64  48  55 N25G35    30.11S
6HR MIN TEMP:  63; 6HR MAX TEMP:  66;

BROOKINGS      SUNNY     75  54  47 SE6       29.97F
ROSEBURG       SUNNY     81  36  19 N15       30.06F
6HR MIN TEMP:  65; 6HR MAX TEMP:  82;

SEXTON SUMMIT  SUNNY     71  40  32 VRB3      30.15S
6HR MIN TEMP:  60; 6HR MAX TEMP:  72;

MEDFORD        MOSUNNY   88  37  16 VRB6      30.00F
6HR MIN TEMP:  68; 6HR MAX TEMP:  88;

$$

ORZ014>016-041-310100-
COLUMBIA GORGE


CITY           SKY/WX    TMP DP  RH WIND       PRES   REMARKS
TROUTDALE      PTSUNNY   78  48  34 VRB7      30.12F
6HR MIN TEMP:  62; 6HR MAX TEMP:  78;

THE DALLES     MOSUNNY   79  30  16 VRB3      30.11F
6HR MIN TEMP:  69; 6HR MAX TEMP:  81;

$$

ORZ029>031-041-044-049-050-061>064-502-503-505>511-310100-
EASTERN OREGON


CITY           SKY/WX    TMP DP  RH WIND       PRES   REMARKS
REDMOND        SUNNY     72  30  21 N15       30.16S
6HR MIN TEMP:  61; 6HR MAX TEMP:  74;

BEND           SUNNY     72  28  20 N9G15     30.16S
PRINEVILLE     SUNNY     72  32  23 NW12      30.16S
KLAMATH FALLS  SUNNY     76  29  17 S5        30.12F
6HR MIN TEMP:  64; 6HR MAX TEMP:  77;

LAKEVIEW       SUNNY     75  32  20 NW5       30.16F
HERMISTON      SUNNY     76  30  18 E3        30.14F
6HR MIN TEMP:  68; 6HR MAX TEMP:  78;

PENDLETON      SUNNY     73  28  18 E12G18    30.15F
6HR MIN TEMP:  64; 6HR MAX TEMP:  75;

JOHN DAY         N/A    N/A N/A N/A MISG        N/A
MEACHAM        SUNNY     64  29  26 VRB5      30.21S
6HR MIN TEMP:  57; 6HR MAX TEMP:  64;

LA GRANDE      SUNNY     72  37  28 N10       30.14S
6HR MIN TEMP:  63; 6HR MAX TEMP:  72;

BAKER CITY     SUNNY     70  32  24 NW17      30.14F
6HR MIN TEMP:  62; 6HR MAX TEMP:  71;

BURNS          SUNNY     74  31  20 S9        30.14F
6HR MIN TEMP:  61; 6HR MAX TEMP:  74;

ROME             N/A     79  27  14 VRB7      30.10F
6HR MIN TEMP:  66; 6HR MAX TEMP:  79;

ONTARIO        SUNNY     81  14   8 NW13      30.08F
6HR MIN TEMP:  69; 6HR MAX TEMP:  81;

$$



USA.gov is the U.S. government's official web portal to all federal, state and local government web resources and services.